Time,TemperatureF,DewpointF,PressureIn,WindDirection,WindDirectionDegrees,WindSpeedMPH,WindSpeedGustMPH,Humidity,HourlyPrecipIn,Conditions,Clouds,dailyrainin,SoftwareType,DateUTC
2013-05-14 00:02:00,62.0,-99.9,-100.00,SSE,162,6.0,8.0,-999,0.00,,,0.00,,2013-05-14 05:02:00,
2013-05-14 00:12:00,62.0,-99.9,-100.00,SSE,162,6.0,8.0,-999,0.00,,,0.00,,2013-05-14 05:12:00,
2013-05-14 00:22:00,62.0,-99.9,-100.00,SSE,162,6.0,8.0,-999,0.00,,,0.00,,2013-05-14 05:22:00,
2013-05-14 00:32:00,62.0,-99.9,-100.00,SSE,165,7.0,11.0,-999,0.00,,,0.00,,2013-05-14 05:32:00,
2013-05-14 00:42:00,62.0,-99.9,-100.00,SSE,165,7.0,11.0,-999,0.00,,,0.00,,2013-05-14 05:42:00,
2013-05-14 00:53:00,62.0,-99.9,-100.00,SSE,165,7.0,11.0,-999,0.00,,,0.00,,2013-05-14 05:53:00,
2013-05-14 01:02:00,61.0,-99.9,-100.00,South,171,5.0,6.0,-999,0.00,,,0.00,,2013-05-14 06:02:00,
2013-05-14 01:13:00,61.0,-99.9,-100.00,South,171,5.0,6.0,-999,0.00,,,0.00,,2013-05-14 06:13:00,
2013-05-14 01:22:00,61.0,-99.9,-100.00,South,171,5.0,6.0,-999,0.00,,,0.00,,2013-05-14 06:22:00,
2013-05-14 01:32:00,60.0,-99.9,-100.00,South,186,3.0,5.0,-999,0.00,,,0.00,,2013-05-14 06:32:00,
2013-05-14 01:42:00,60.0,-99.9,-100.00,South,186,3.0,5.0,-999,0.00,,,0.00,,2013-05-14 06:42:00,
2013-05-14 01:52:00,60.0,-99.9,-100.00,South,186,3.0,5.0,-999,0.00,,,0.00,,2013-05-14 06:52:00,
2013-05-14 02:02:00,58.0,-99.9,-100.00,SSW,206,2.0,3.0,-999,0.00,,,0.00,,2013-05-14 07:02:00,
2013-05-14 02:11:00,58.0,-99.9,-100.00,SSW,206,2.0,3.0,-999,0.00,,,0.00,,2013-05-14 07:11:00,
2013-05-14 02:22:00,58.0,-99.9,-100.00,SSW,206,2.0,3.0,-999,0.00,,,0.00,,2013-05-14 07:22:00,
2013-05-14 02:32:00,57.0,-99.9,-100.00,SSW,208,3.0,4.0,-999,0.00,,,0.00,,2013-05-14 07:32:00,
2013-05-14 02:42:00,57.0,-99.9,-100.00,SSW,208,3.0,4.0,-999,0.00,,,0.00,,2013-05-14 07:42:00,
2013-05-14 02:52:00,57.0,-99.9,-100.00,SSW,208,3.0,4.0,-999,0.00,,,0.00,,2013-05-14 07:52:00,
2013-05-14 03:00:00,57.0,-99.9,-100.00,SSW,210,3.0,5.0,-999,0.00,,,0.00,,2013-05-14 08:00:00,
2013-05-14 03:02:00,58.0,-99.9,-100.00,SSW,199,3.0,5.0,-999,0.00,,,0.00,,2013-05-14 08:02:00,
2013-05-14 03:11:00,58.0,-99.9,-100.00,SSW,199,3.0,5.0,-999,0.00,,,0.00,,2013-05-14 08:11:00,
2013-05-14 03:22:00,58.0,-99.9,-100.00,SSW,199,3.0,5.0,-999,0.00,,,0.00,,2013-05-14 08:22:00,
2013-05-14 03:32:00,57.0,-99.9,-100.00,SSW,210,3.0,5.0,-999,0.00,,,0.00,,2013-05-14 08:32:00,
2013-05-14 03:42:00,57.0,-99.9,-100.00,SSW,210,3.0,5.0,-999,0.00,,,0.00,,2013-05-14 08:42:00,
2013-05-14 03:52:00,57.0,-99.9,-100.00,SSW,210,3.0,5.0,-999,0.00,,,0.00,,2013-05-14 08:52:00,
2013-05-14 05:05:00,56.0,-99.9,-100.00,SSW,210,3.0,4.0,-999,-99.99,,,0.00,,2013-05-14 10:05:00,
2013-05-14 05:14:00,56.0,-99.9,-100.00,SSW,210,3.0,4.0,-999,-99.99,,,0.00,,2013-05-14 10:14:00,
2013-05-14 05:25:00,56.0,-99.9,-100.00,SSW,210,3.0,4.0,-999,-99.99,,,0.00,,2013-05-14 10:25:00,
2013-05-14 05:33:00,56.0,-99.9,-100.00,SW,214,3.0,4.0,-999,0.00,,,0.00,,2013-05-14 10:33:00,
2013-05-14 05:43:00,56.0,-99.9,-100.00,SW,214,3.0,4.0,-999,0.00,,,0.00,,2013-05-14 10:43:00,
2013-05-14 05:53:00,56.0,-99.9,-100.00,SW,214,3.0,4.0,-999,0.00,,,0.00,,2013-05-14 10:53:00,
2013-05-14 06:03:00,55.0,-99.9,-100.00,SSW,204,2.0,2.0,-999,0.00,,,0.00,,2013-05-14 11:03:00,
2013-05-14 06:11:00,55.0,-99.9,-100.00,SSW,204,2.0,2.0,-999,0.00,,,0.00,,2013-05-14 11:11:00,
2013-05-14 06:22:00,55.0,-99.9,-100.00,SSW,204,2.0,2.0,-999,0.00,,,0.00,,2013-05-14 11:22:00,
2013-05-14 06:32:00,55.0,-99.9,-100.00,SSW,205,2.0,3.0,-999,0.00,,,0.00,,2013-05-14 11:32:00,
2013-05-14 06:44:00,55.0,-99.9,-100.00,SSW,205,2.0,3.0,-999,0.00,,,0.00,,2013-05-14 11:44:00,
2013-05-14 06:53:00,55.0,-99.9,-100.00,SSW,205,2.0,3.0,-999,0.00,,,0.00,,2013-05-14 11:53:00,
2013-05-14 07:03:00,55.0,-99.9,-100.00,SSW,212,2.0,3.0,-999,0.00,,,0.00,,2013-05-14 12:03:00,
2013-05-14 07:12:00,55.0,-99.9,-100.00,SSW,212,2.0,3.0,-999,0.00,,,0.00,,2013-05-14 12:12:00,
2013-05-14 07:22:00,55.0,-99.9,-100.00,SSW,212,2.0,3.0,-999,0.00,,,0.00,,2013-05-14 12:22:00,
2013-05-14 07:30:00,61.0,-99.9,-100.00,SSW,199,3.0,4.0,-999,0.00,,,0.00,,2013-05-14 12:30:00,
2013-05-14 07:32:00,58.0,-99.9,-100.00,SW,215,3.0,4.0,-999,0.00,,,0.00,,2013-05-14 12:32:00,
2013-05-14 07:42:00,58.0,-99.9,-100.00,SW,215,3.0,4.0,-999,0.00,,,0.00,,2013-05-14 12:42:00,
2013-05-14 07:52:00,58.0,-99.9,-100.00,SW,215,3.0,4.0,-999,0.00,,,0.00,,2013-05-14 12:52:00,
2013-05-14 08:02:00,61.0,-99.9,-100.00,SSW,199,3.0,4.0,-999,0.00,,,0.00,,2013-05-14 13:02:00,
2013-05-14 08:11:00,61.0,-99.9,-100.00,SSW,199,3.0,4.0,-999,0.00,,,0.00,,2013-05-14 13:11:00,
2013-05-14 08:22:00,61.0,-99.9,-100.00,SSW,199,3.0,4.0,-999,0.00,,,0.00,,2013-05-14 13:22:00,
2013-05-14 09:02:00,67.0,-99.9,-100.00,SSW,211,3.0,4.0,-999,0.00,,,0.00,,2013-05-14 14:02:00,
2013-05-14 09:11:00,67.0,-99.9,-100.00,SSW,211,3.0,4.0,-999,0.00,,,0.00,,2013-05-14 14:11:00,
2013-05-14 09:22:00,67.0,-99.9,-100.00,SSW,211,3.0,4.0,-999,0.00,,,0.00,,2013-05-14 14:22:00,
2013-05-14 09:32:00,69.0,-99.9,-100.00,SW,218,4.0,6.0,-999,0.00,,,0.00,,2013-05-14 14:32:00,
2013-05-14 09:42:00,69.0,-99.9,-100.00,SW,218,4.0,6.0,-999,0.00,,,0.00,,2013-05-14 14:42:00,
2013-05-14 09:53:00,69.0,-99.9,-100.00,SW,218,4.0,6.0,-999,0.00,,,0.00,,2013-05-14 14:53:00,
2013-05-14 10:01:00,70.0,-99.9,-100.00,WSW,241,6.0,10.0,-999,0.00,,,0.00,,2013-05-14 15:01:00,
2013-05-14 10:12:00,70.0,-99.9,-100.00,WSW,241,6.0,10.0,-999,0.00,,,0.00,,2013-05-14 15:12:00,
2013-05-14 10:22:00,70.0,-99.9,-100.00,WSW,241,6.0,10.0,-999,0.00,,,0.00,,2013-05-14 15:22:00,
2013-05-14 10:33:00,72.0,-99.9,-100.00,SW,228,5.0,7.0,-999,0.00,,,0.00,,2013-05-14 15:33:00,
2013-05-14 10:43:00,72.0,-99.9,-100.00,SW,228,5.0,7.0,-999,0.00,,,0.00,,2013-05-14 15:43:00,
2013-05-14 10:53:00,72.0,-99.9,-100.00,SW,228,5.0,7.0,-999,0.00,,,0.00,,2013-05-14 15:53:00,
2013-05-14 11:03:00,73.0,-99.9,-100.00,WSW,238,5.0,7.0,-999,0.00,,,0.00,,2013-05-14 16:03:00,
2013-05-14 11:12:00,73.0,-99.9,-100.00,WSW,238,5.0,7.0,-999,0.00,,,0.00,,2013-05-14 16:12:00,
2013-05-14 11:23:00,73.0,-99.9,-100.00,WSW,238,5.0,7.0,-999,0.00,,,0.00,,2013-05-14 16:23:00,
2013-05-14 11:33:00,78.0,-99.9,-100.00,WSW,244,4.0,8.0,-999,0.00,,,0.00,,2013-05-14 16:33:00,
2013-05-14 11:44:00,78.0,-99.9,-100.00,WSW,244,4.0,8.0,-999,0.00,,,0.00,,2013-05-14 16:44:00,
2013-05-14 11:54:00,78.0,-99.9,-100.00,WSW,244,4.0,8.0,-999,0.00,,,0.00,,2013-05-14 16:54:00,
2013-05-14 12:00:00,82.0,-99.9,-100.00,SW,221,3.0,4.0,-999,0.00,,,0.00,,2013-05-14 17:00:00,
2013-05-14 12:04:00,80.0,-99.9,-100.00,SW,236,4.0,6.0,-999,0.00,,,0.00,,2013-05-14 17:04:00,
2013-05-14 12:14:00,80.0,-99.9,-100.00,SW,236,4.0,6.0,-999,0.00,,,0.00,,2013-05-14 17:14:00,
2013-05-14 12:25:00,80.0,-99.9,-100.00,SW,236,4.0,6.0,-999,0.00,,,0.00,,2013-05-14 17:25:00,
2013-05-14 12:33:00,82.0,-99.9,-100.00,SW,221,3.0,4.0,-999,0.00,,,0.00,,2013-05-14 17:33:00,
2013-05-14 12:43:00,82.0,-99.9,-100.00,SW,221,3.0,4.0,-999,0.00,,,0.00,,2013-05-14 17:43:00,
2013-05-14 12:53:00,82.0,-99.9,-100.00,SW,221,3.0,4.0,-999,0.00,,,0.00,,2013-05-14 17:53:00,
2013-05-14 13:32:00,86.0,-99.9,-100.00,South,169,4.0,8.0,-999,0.00,,,0.00,,2013-05-14 18:32:00,
2013-05-14 13:42:00,86.0,-99.9,-100.00,South,169,4.0,8.0,-999,0.00,,,0.00,,2013-05-14 18:42:00,
2013-05-14 13:52:00,86.0,-99.9,-100.00,South,169,4.0,8.0,-999,0.00,,,0.00,,2013-05-14 18:52:00,
2013-05-14 14:02:00,88.0,-99.9,-100.00,South,180,4.0,8.0,-999,0.00,,,0.00,,2013-05-14 19:02:00,
2013-05-14 14:12:00,88.0,-99.9,-100.00,South,180,4.0,8.0,-999,0.00,,,0.00,,2013-05-14 19:12:00,
2013-05-14 14:22:00,88.0,-99.9,-100.00,South,180,4.0,8.0,-999,0.00,,,0.00,,2013-05-14 19:22:00,
2013-05-14 14:32:00,90.0,-99.9,-100.00,South,170,6.0,12.0,-999,0.00,,,0.00,,2013-05-14 19:32:00,
2013-05-14 14:42:00,90.0,-99.9,-100.00,South,170,6.0,12.0,-999,0.00,,,0.00,,2013-05-14 19:42:00,
2013-05-14 14:53:00,90.0,-99.9,-100.00,South,170,6.0,12.0,-999,0.00,,,0.00,,2013-05-14 19:53:00,
2013-05-14 15:02:00,92.0,-99.9,-100.00,South,173,6.0,10.0,-999,0.00,,,0.00,,2013-05-14 20:02:00,
2013-05-14 15:11:00,92.0,-99.9,-100.00,South,173,6.0,10.0,-999,0.00,,,0.00,,2013-05-14 20:11:00,
2013-05-14 15:23:00,92.0,-99.9,-100.00,South,173,6.0,10.0,-999,0.00,,,0.00,,2013-05-14 20:23:00,
2013-05-14 15:30:00,92.0,-99.9,-100.00,South,178,7.0,11.0,-999,0.00,,,0.00,,2013-05-14 20:30:00,
2013-05-14 15:33:00,93.0,-99.9,-100.00,South,182,7.0,13.0,-999,0.00,,,0.00,,2013-05-14 20:33:00,
2013-05-14 15:44:00,93.0,-99.9,-100.00,South,182,7.0,13.0,-999,0.00,,,0.00,,2013-05-14 20:44:00,
2013-05-14 15:52:00,93.0,-99.9,-100.00,South,182,7.0,13.0,-999,0.00,,,0.00,,2013-05-14 20:52:00,
2013-05-14 16:03:00,92.0,-99.9,-100.00,South,178,7.0,11.0,-999,0.00,,,0.00,,2013-05-14 21:03:00,
2013-05-14 16:12:00,92.0,-99.9,-100.00,South,178,7.0,11.0,-999,0.00,,,0.00,,2013-05-14 21:12:00,
2013-05-14 16:23:00,92.0,-99.9,-100.00,South,178,7.0,11.0,-999,0.00,,,0.00,,2013-05-14 21:23:00,
2013-05-14 17:00:00,92.0,-99.9,-100.00,South,187,8.0,11.0,-999,0.00,,,0.00,,2013-05-14 22:00:00,
2013-05-14 17:04:00,93.0,-99.9,-100.00,South,181,7.0,12.0,-999,0.00,,,0.00,,2013-05-14 22:04:00,
2013-05-14 17:14:00,93.0,-99.9,-100.00,South,181,7.0,12.0,-999,0.00,,,0.00,,2013-05-14 22:14:00,
2013-05-14 17:24:00,93.0,-99.9,-100.00,South,181,7.0,12.0,-999,0.00,,,0.00,,2013-05-14 22:24:00,
2013-05-14 17:35:00,92.0,-99.9,-100.00,South,187,8.0,11.0,-999,0.00,,,0.00,,2013-05-14 22:35:00,
2013-05-14 17:45:00,92.0,-99.9,-100.00,South,187,8.0,11.0,-999,0.00,,,0.00,,2013-05-14 22:45:00,
2013-05-14 17:55:00,92.0,-99.9,-100.00,South,187,8.0,11.0,-999,0.00,,,0.00,,2013-05-14 22:55:00,
2013-05-14 18:30:00,89.0,-99.9,-100.00,South,185,7.0,9.0,-999,0.00,,,0.00,,2013-05-14 23:30:00,
2013-05-14 18:32:00,91.0,-99.9,-100.00,South,184,9.0,12.0,-999,0.00,,,0.00,,2013-05-14 23:32:00,
2013-05-14 18:44:00,91.0,-99.9,-100.00,South,184,9.0,12.0,-999,0.00,,,0.00,,2013-05-14 23:44:00,
2013-05-14 18:53:00,91.0,-99.9,-100.00,South,184,9.0,12.0,-999,0.00,,,0.00,,2013-05-14 23:53:00,
2013-05-14 19:02:00,89.0,-99.9,-100.00,South,185,7.0,9.0,-999,0.00,,,0.00,,2013-05-15 00:02:00,
2013-05-14 19:12:00,89.0,-99.9,-100.00,South,185,7.0,9.0,-999,0.00,,,0.00,,2013-05-15 00:12:00,
2013-05-14 19:22:00,89.0,-99.9,-100.00,South,185,7.0,9.0,-999,0.00,,,0.00,,2013-05-15 00:22:00,
2013-05-14 20:32:00,87.0,-99.9,-100.00,SSW,195,4.0,5.0,-999,0.00,,,0.00,,2013-05-15 01:32:00,
2013-05-14 20:42:00,87.0,-99.9,-100.00,SSW,195,4.0,5.0,-999,0.00,,,0.00,,2013-05-15 01:42:00,
2013-05-14 20:52:00,87.0,-99.9,-100.00,SSW,195,4.0,5.0,-999,0.00,,,0.00,,2013-05-15 01:52:00,
2013-05-14 21:02:00,85.0,-99.9,-100.00,SSW,196,3.0,4.0,-999,0.00,,,0.00,,2013-05-15 02:02:00,
2013-05-14 21:11:00,85.0,-99.9,-100.00,SSW,196,3.0,4.0,-999,0.00,,,0.00,,2013-05-15 02:11:00,
2013-05-14 21:22:00,85.0,-99.9,-100.00,SSW,196,3.0,4.0,-999,0.00,,,0.00,,2013-05-15 02:22:00,
2013-05-14 21:32:00,80.0,-99.9,-100.00,SSW,195,2.0,3.0,-999,0.00,,,0.00,,2013-05-15 02:32:00,
2013-05-14 21:42:00,80.0,-99.9,-100.00,SSW,195,2.0,3.0,-999,0.00,,,0.00,,2013-05-15 02:42:00,
2013-05-14 21:52:00,80.0,-99.9,-100.00,SSW,195,2.0,3.0,-999,0.00,,,0.00,,2013-05-15 02:52:00,
2013-05-14 22:01:00,81.0,-99.9,-100.00,SSW,205,2.0,2.0,-999,0.00,,,0.00,,2013-05-15 03:01:00,
2013-05-14 22:13:00,81.0,-99.9,-100.00,SSW,205,2.0,2.0,-999,0.00,,,0.00,,2013-05-15 03:13:00,
2013-05-14 22:22:00,81.0,-99.9,-100.00,SSW,205,2.0,2.0,-999,0.00,,,0.00,,2013-05-15 03:22:00,
2013-05-14 22:33:00,81.0,-99.9,-100.00,SSW,204,2.0,2.0,-999,0.00,,,0.00,,2013-05-15 03:33:00,
2013-05-14 22:44:00,81.0,-99.9,-100.00,SSW,204,2.0,2.0,-999,0.00,,,0.00,,2013-05-15 03:44:00,
2013-05-14 22:54:00,81.0,-99.9,-100.00,SSW,204,2.0,2.0,-999,0.00,,,0.00,,2013-05-15 03:54:00,
2013-05-14 23:03:00,80.0,-99.9,-100.00,SSW,209,2.0,3.0,-999,0.00,,,0.00,,2013-05-15 04:03:00,
2013-05-14 23:12:00,80.0,-99.9,-100.00,SSW,209,2.0,3.0,-999,0.00,,,0.00,,2013-05-15 04:12:00,
2013-05-14 23:24:00,80.0,-99.9,-100.00,SSW,209,2.0,3.0,-999,0.00,,,0.00,,2013-05-15 04:24:00,
2013-05-14 23:33:00,82.0,-99.9,-100.00,SSW,199,3.0,4.0,-999,0.00,,,0.00,,2013-05-15 04:33:00,
2013-05-14 23:43:00,82.0,-99.9,-100.00,SSW,199,3.0,4.0,-999,0.00,,,0.00,,2013-05-15 04:43:00,
2013-05-14 23:52:00,82.0,-99.9,-100.00,SSW,199,3.0,4.0,-999,0.00,,,0.00,,2013-05-15 04:52:00,